Weather History for Olive Branch, MS

Change the Weather History Date:

Friday, November 29, 2013

  Actual Average (KMEM) Record (KMEM)
Temperature  
Mean Temperature 40 °F 48 °F  
Max Temperature 53 °F 57 °F 78 °F (1927)
Min Temperature 26 °F 39 °F 18 °F (1959)
Degree Days  
Heating Degree Days 26 17  
Month to date heating degree days 351  
Since 1 July heating degree days 482  
Cooling Degree Days 0 0  
Month to date cooling degree days 11  
Year to date cooling degree days 2254  
Moisture  
Dew Point 30 °F    
Average Humidity 83    
Maximum Humidity 100    
Minimum Humidity 44    
Precipitation  
Precipitation 0.00 in 0.22 in 2.46 in (2001)
Month to date precipitation 5.28  
Year to date precipitation 47.73  
Snow  
Snow 0.00 in 0.00 in T in (2011)
Month to date snowfall 0.0  
Since 1 July snowfall 0.0  
Since 1 September snowfall 0.0  
Snow Depth -    
Sea Level Pressure  
Sea Level Pressure 30.49 in    
Wind  
Wind Speed 0 mph (SSE)    
Max Wind Speed 5 mph    
Max Gust Speed -    
Visibility 10 miles    
Events      
T = Trace of Precipitation, MM = Missing Value Source: NWS Daily Summary

Daily Weather History Graph

Daily Weather History Graph

Search for Another Location

Airport:

Trip Planner

Search our weather history database for the weather conditions in past years. The results will help you decide how hot, cold, wet, or windy it might be!

Date:

Astronomy

Nov. 29, 2013 Rise Set
Actual Time 6:47 AM CST 4:47 PM CST
Civil Twilight 6:19 AM CST 5:15 PM CST
Nautical Twilight 5:48 AM CST 5:46 PM CST
Astronomical Twilight 5:17 AM CST 6:17 PM CST
Moon 3:00 AM CST (11/29) 2:25 PM CST (11/29)
Length of Visible Light 10h 55m
Length of Day
10h 00m
Waning Crescent, 14% of the Moon is Illuminated
Nov 29
Waning Crescent
Dec 2
New
Dec 9
First Quarter
Dec 17
Full
Dec 25
Last Quarter

Hourly Weather History & Observations

Time (CST) Temp. Windchill Dew Point Humidity Pressure Visibility Wind Dir Wind Speed Gust Speed Precip Events Conditions
12:15 AM 32.0 °F - 28.4 °F 87% 30.48 in 10.0 mi Calm Calm - 0.00 in   Clear
12:35 AM 32.0 °F - 28.4 °F 87% 30.49 in 9.0 mi Calm Calm - 0.00 in   Clear
12:55 AM 32.0 °F - 28.4 °F 87% 30.49 in 9.0 mi Calm Calm - 0.00 in   Clear
1:15 AM 30.2 °F - 28.4 °F 93% 30.49 in 9.0 mi Calm Calm - 0.00 in   Clear
1:35 AM 28.4 °F - 28.4 °F 100% 30.49 in 10.0 mi Calm Calm - 0.00 in   Clear
1:55 AM 28.4 °F - 28.4 °F 100% 30.49 in 9.0 mi Calm Calm - 0.00 in   Clear
2:15 AM 28.4 °F - 28.4 °F 100% 30.50 in 10.0 mi Calm Calm - 0.00 in   Clear
2:35 AM 28.4 °F - 28.4 °F 100% 30.51 in 10.0 mi Calm Calm - 0.00 in   Clear
2:55 AM 28.4 °F - 28.4 °F 100% 30.51 in 10.0 mi Calm Calm - 0.00 in   Clear
3:15 AM 28.4 °F - 28.4 °F 100% 30.50 in 10.0 mi Calm Calm - 0.00 in   Clear
3:35 AM 28.4 °F - 28.4 °F 100% 30.50 in 10.0 mi Calm Calm - 0.00 in   Clear
3:55 AM 28.4 °F - 28.4 °F 100% 30.50 in 10.0 mi Calm Calm - 0.00 in   Clear
4:15 AM 28.4 °F - 28.4 °F 100% 30.50 in 10.0 mi Calm Calm - 0.00 in   Clear
4:35 AM 28.4 °F - 28.4 °F 100% 30.51 in 10.0 mi Calm Calm - 0.00 in   Clear
4:55 AM 28.4 °F - 28.4 °F 100% 30.52 in 8.0 mi Calm Calm - 0.00 in   Clear
5:15 AM 26.6 °F - 26.6 °F 100% 30.53 in 10.0 mi Calm Calm - 0.00 in   Clear
5:35 AM 28.4 °F - 28.4 °F 100% 30.53 in 10.0 mi Calm Calm - 0.00 in   Clear
6:50 AM 26.6 °F - 26.6 °F 100% 30.55 in 10.0 mi Calm Calm - N/A   Partly Cloudy
7:50 AM 30.2 °F - 30.2 °F 100% 30.55 in 10.0 mi Calm Calm - N/A   Partly Cloudy
8:50 AM 37.4 °F 33.8 °F 30.2 °F 75% 30.56 in 10.0 mi South 4.6 mph - N/A   Partly Cloudy
9:50 AM 42.8 °F - 32.0 °F 66% 30.56 in 10.0 mi Calm Calm - N/A   Partly Cloudy
11:50 AM 48.2 °F - 32.0 °F 54% 30.53 in 10.0 mi Calm Calm - N/A   Clear
12:50 PM 51.8 °F - 32.0 °F 47% 30.50 in 10.0 mi Calm Calm - N/A   Clear
1:50 PM 53.6 °F - 32.0 °F 44% 30.49 in 10.0 mi Calm Calm - N/A   Clear
2:50 PM 53.6 °F - 32.0 °F 44% 30.48 in 10.0 mi Calm Calm - N/A   Clear
3:50 PM 53.6 °F - 32.0 °F 44% 30.47 in 10.0 mi Calm Calm - N/A   Clear
4:50 PM 51.8 °F - 32.0 °F 47% 30.46 in 10.0 mi Calm Calm - N/A   Scattered Clouds
5:50 PM 46.4 °F - 32.0 °F 57% 30.46 in 10.0 mi Calm Calm - N/A   Partly Cloudy
6:50 PM 42.8 °F - 32.0 °F 66% 30.45 in 10.0 mi Calm Calm - N/A   Clear
7:50 PM 39.2 °F - 32.0 °F 75% 30.45 in 10.0 mi Calm Calm - N/A   Clear
7:55 PM 39.2 °F - 32.0 °F 75% 30.45 in 10.0 mi Calm Calm - 0.00 in   Clear
8:15 PM 41.0 °F - 32.0 °F 70% 30.45 in 10.0 mi Calm Calm - 0.00 in   Clear
8:35 PM 39.2 °F - 32.0 °F 75% 30.45 in 10.0 mi Calm Calm - 0.00 in   Clear
8:55 PM 37.4 °F - 32.0 °F 81% 30.45 in 10.0 mi Calm Calm - 0.00 in   Clear
9:15 PM 35.6 °F - 32.0 °F 87% 30.45 in 9.0 mi Calm Calm - 0.00 in   Clear
9:35 PM 35.6 °F - 32.0 °F 87% 30.45 in 10.0 mi Calm Calm - 0.00 in   Clear
9:55 PM 37.4 °F - 32.0 °F 81% 30.46 in 10.0 mi Calm Calm - 0.00 in   Clear
10:15 PM 37.4 °F - 32.0 °F 81% 30.46 in 9.0 mi Calm Calm - 0.00 in   Clear
10:35 PM 33.8 °F - 32.0 °F 93% 30.45 in 10.0 mi Calm Calm - 0.00 in   Clear
10:55 PM 33.8 °F 29.6 °F 32.0 °F 93% 30.44 in 10.0 mi SSE 4.6 mph - 0.00 in   Clear
11:15 PM 35.6 °F 32.8 °F 32.0 °F 87% 30.45 in 6.0 mi SSE 3.5 mph - 0.00 in   Clear
11:35 PM 35.6 °F - 32.0 °F 87% 30.44 in 8.0 mi Calm Calm - 0.00 in   Clear
11:55 PM 35.6 °F - 32.0 °F 87% 30.44 in 9.0 mi Calm Calm - 0.00 in   Clear